Simultaneous Nadir Overpasses (SNOs) Predictions

Prediction of SNOs near equator between NOAA-19 and NPP Satellite Orbit:

Table of predicted SNOs near equator for the next 14.0 days since TLE Epoch: 3/2/2012
Index Date (NOAA-19) Time (NOAA-19) NOAA-19 Lat,Lon Date (NPP) Time (NPP) NPP Lat,Lon Distance(km) Time Diff (sec)
1 03/04/2012 07:07:36 29.99, 90.95 03/04/2012 07:04:21 29.81, 89.94 99.81 195
2 03/04/2012 07:58:40 -29.97,-101.81 03/04/2012 07:55:02 -29.78,-102.73 90.90 218
3 03/04/2012 08:49:41 29.96, 65.44 03/04/2012 08:45:51 29.82, 64.56 85.98 230
4 03/04/2012 09:40:45 -29.95,-127.33 03/04/2012 09:36:32 -29.79,-128.10 77.04 253
5 03/04/2012 10:31:47 30.00, 39.91 03/04/2012 10:27:21 29.82, 39.19 72.07 266
6 03/04/2012 11:22:51 -29.98,-152.86 03/04/2012 11:18:03 -29.85,-153.49 63.13 288
7 03/04/2012 12:13:52 29.97, 14.39 03/04/2012 12:08:51 29.83, 13.81 58.22 301
8 03/04/2012 13:04:56 -29.95,-178.37 03/04/2012 12:59:33 -29.86,-178.87 49.28 323
9 03/04/2012 13:55:57 29.95, -11.12 03/04/2012 13:50:21 29.83, -11.57 44.37 336
10 03/04/2012 14:47:02 -29.99, 156.10 03/04/2012 14:41:04 -29.92, 155.74 35.39 358
11 03/04/2012 15:38:03 29.98, -36.66 03/04/2012 15:31:52 29.90, -36.96 30.49 371
12 03/04/2012 16:29:07 -29.96, 130.58 03/04/2012 16:22:34 -29.92, 130.36 21.56 393
13 03/04/2012 17:20:08 29.95, -62.17 03/04/2012 17:13:22 29.90, -62.33 16.67 406
14 03/04/2012 18:11:13 -29.99, 105.05 03/04/2012 18:04:05 -29.99, 104.97 7.77 428
15 03/04/2012 19:02:14 29.98, -87.70 03/04/2012 18:54:53 29.97, -87.73 3.10 441
16 03/04/2012 19:47:48 -10.79, 84.34 03/04/2012 19:40:07 -10.79, 84.34 0.31 461
17 03/04/2012 20:36:08 1.28,-106.25 03/04/2012 20:28:14 1.27,-106.22 3.40 474
18 03/04/2012 21:26:28 1.19, 61.55 03/04/2012 21:18:13 1.19, 61.66 11.99 495
19 03/04/2012 22:17:47 -0.27,-131.42 03/04/2012 22:09:18 -0.25,-131.25 18.48 509
20 03/04/2012 23:09:09 -0.89, 35.56 03/04/2012 23:00:19 -0.93, 35.81 28.37 530
21 03/05/2012 00:00:28 1.82,-157.41 03/04/2012 23:51:24 1.87,-157.10 35.03 544
22 03/05/2012 00:51:49 -2.90, 9.58 03/05/2012 00:42:24 -2.99, 9.98 45.04 565
23 03/05/2012 01:43:08 3.84, 176.61 03/05/2012 01:33:29 3.93, 177.06 51.58 579
24 03/05/2012 02:34:30 -4.97, -16.41 03/05/2012 02:24:30 -5.11, -15.87 61.67 600
25 03/16/2012 11:47:03 29.96, 21.10 03/16/2012 11:43:27 29.75, 20.14 95.35 216
26 03/16/2012 12:38:08 -30.00,-171.68 03/16/2012 12:34:10 -29.83,-172.55 86.41 238
27 03/16/2012 13:29:09 30.00, -4.43 03/16/2012 13:24:58 29.82, -5.25 81.43 251
28 03/16/2012 14:20:13 -29.97, 162.81 03/16/2012 14:15:40 -29.84, 162.07 72.57 273
29 03/16/2012 15:11:14 29.97, -29.95 03/16/2012 15:06:28 29.82, -30.63 67.58 286
30 03/16/2012 16:02:18 -29.95, 137.29 03/16/2012 15:57:10 -29.84, 136.70 58.74 308
31 03/16/2012 16:53:19 29.95, -55.46 03/16/2012 16:47:58 29.83, -56.00 53.74 321
32 03/16/2012 17:44:24 -29.98, 111.76 03/16/2012 17:38:41 -29.91, 111.30 44.85
